FW7441 Weather Reports


Display with metric or nautical units.
time (UTC)temp
F
wind
direction
speed
MPH
gust
MPH
rain 1hr
in
rain 24hr
in
rain mn
in
humidity
%
barometer
mb
20260509184224 72 287 5.0 10.0 0.00 0.00 0.00 39 1003.5
20260509183720 71 248 3.0 5.0 0.00 0.00 0.00 38 1003.0
20260509183215 71 255 4.0 6.0 0.00 0.00 0.00 38 1003.2
20260509182711 72 249 1.0 2.0 0.00 0.00 0.00 42 1003.1
20260509182208 70 212 2.0 2.0 0.00 0.00 0.00 38 1003.3
20260509181706 71 304 4.0 7.0 0.00 0.00 0.00 41 1003.3
20260509181203 70 290 3.0 3.0 0.00 0.00 0.00 43 1003.3
20260509180700 67 248 1.0 1.0 0.00 0.00 0.00 42 1003.4
20260509180156 66 250 1.0 2.0 0.00 0.00 0.00 43 1003.5
20260509175653 66 211 2.0 3.0 0.00 0.00 0.00 42 1003.8
20260509175149 66 186 1.0 2.0 0.00 0.00 0.00 43 1003.7
20260509174645 67 247 1.0 2.0 0.00 0.00 0.00 44 1003.6
20260509174140 68 317 1.0 1.0 0.00 0.00 0.00 45 1003.6
20260509173636 71 243 1.0 2.0 0.00 0.00 0.00 43 1003.6
20260509173132 71 159 2.0 2.0 0.00 0.00 0.00 41 1003.7
20260509172629 69 310 3.0 3.0 0.00 0.00 0.00 41 1004.0
20260509172125 67 324 2.0 7.0 0.00 0.00 0.00 46 1003.8
20260509171621 67 236 1.0 2.0 0.00 0.00 0.00 44 1004.1
20260509171117 67 338 3.0 3.0 0.00 0.00 0.00 41 1003.8
20260509170614 67 217 1.0 2.0 0.00 0.00 0.00 43 1003.8
20260509170110 68 262 1.0 3.0 0.00 0.00 0.00 43 1003.8
20260509165608 68 306 3.0 6.0 0.00 0.00 0.00 42 1003.8
20260509165104 69 258 3.0 5.0 0.00 0.00 0.00 43 1003.8
20260509164600 69 188 0.0 1.0 0.00 0.00 0.00 48 1003.8
20260509164055 68 110 1.0 2.0 0.00 0.00 0.00 48 1004.0
20260509163554 67 227 0.0 0.0 0.00 0.00 0.00 49 1003.9
20260509163049 68 128 3.0 5.0 0.00 0.00 0.00 51 1003.7
20260509162546 67 272 1.0 2.0 0.00 0.00 0.00 52 1003.9
20260509162042 66 239 0.0 1.0 0.00 0.00 0.00 53 1003.8
20260509161539 66 253 2.0 2.0 0.00 0.00 0.00 51 1003.7
20260509161033 66 222 4.0 5.0 0.00 0.00 0.00 54 1003.7
20260509160530 66 225 2.0 3.0 0.00 0.00 0.00 56 1003.7
20260509160025 66 258 3.0 3.0 0.00 0.00 0.00 56 1003.8
20260509155521 66 299 3.0 3.0 0.00 0.00 0.00 57 1003.6
20260509155018 65 257 1.0 1.0 0.00 0.00 0.00 57 1003.8
20260509154514 65 76 0.0 1.0 0.00 0.00 0.00 57 1003.7
20260509154012 65 274 1.0 2.0 0.00 0.00 0.00 58 1003.8
20260509153508 65 257 1.0 2.0 0.00 0.00 0.00 59 1003.5
20260509153005 65 264 5.0 6.0 0.00 0.00 0.00 56 1003.7
20260509152501 66 293 3.0 5.0 0.00 0.00 0.00 57 1003.5
20260509151958 66 277 4.0 5.0 0.00 0.00 0.00 57 1003.6
20260509151454 66 317 5.0 5.0 0.00 0.00 0.00 57 1003.6
20260509150953 66 244 3.0 3.0 0.00 0.00 0.00 59 1003.4
20260509150449 66 259 3.0 5.0 0.00 0.00 0.00 60 1003.5
20260509145948 67 262 2.0 3.0 0.00 0.00 0.00 62 1003.4
20260509145443 65 185 2.0 3.0 0.00 0.00 0.00 64 1003.6
20260509144938 65 216 3.0 3.0 0.00 0.00 0.00 61 1003.4
20260509144436 65 336 2.0 2.0 0.00 0.00 0.00 66 1003.1
20260509143932 64 278 1.0 1.0 0.00 0.00 0.00 65 1003.2
20260509143430 63 254 3.0 3.0 0.00 0.00 0.00 66 1003.4
20260509142926 64 269 3.0 3.0 0.00 0.00 0.00 67 1003.5
20260509142423 63 233 1.0 2.0 0.00 0.00 0.00 69 1003.3
20260509141918 62 235 1.0 2.0 0.00 0.00 0.00 70 1003.4
20260509141416 62 284 4.0 6.0 0.00 0.00 0.00 70 1003.2
20260509140912 62 267 1.0 2.0 0.00 0.00 0.00 74 1003.3
20260509140408 61 283 2.0 3.0 0.00 0.00 0.00 74 1003.1
20260509135907 61 159 2.0 2.0 0.00 0.00 0.00 75 1003.1
20260509135404 60 115 0.0 0.0 0.00 0.00 0.00 76 1003.2
20260509134901 61 187 0.0 0.0 0.00 0.00 0.00 76 1003.0
20260509134359 60 264 2.0 2.0 0.00 0.00 0.00 77 1003.1
20260509133855 60 247 3.0 3.0 0.00 0.00 0.00 77 1003.0
20260509133352 60 247 3.0 5.0 0.00 0.00 0.00 78 1003.0
20260509132851 59 284 0.0 1.0 0.00 0.00 0.00 80 1002.9
20260509132349 59 277 2.0 3.0 0.00 0.00 0.00 80 1002.9
20260509131845 58 235 3.0 6.0 0.00 0.00 0.00 81 1003.1
20260509131342 59 146 1.0 2.0 0.00 0.00 0.00 81 1002.9
20260509130839 58 246 4.0 6.0 0.00 0.00 0.00 82 1003.0
20260509130334 58 211 1.0 2.0 0.00 0.00 0.00 83 1003.1
20260509125831 58 269 1.0 1.0 0.00 0.00 0.00 84 1003.3
20260509125327 58 274 2.0 2.0 0.00 0.00 0.00 83 1003.3
20260509124824 58 341 3.0 3.0 0.00 0.00 0.00 84 1003.3
20260509124321 57 286 3.0 3.0 0.00 0.00 0.00 85 1003.4
20260509123819 56 271 3.0 3.0 0.00 0.00 0.00 86 1003.2
20260509123316 56 249 3.0 3.0 0.00 0.00 0.00 86 1003.4
20260509122811 56 293 4.0 5.0 0.00 0.00 0.00 86 1003.3
20260509122309 56 248 3.0 5.0 0.00 0.00 0.00 87 1003.3
20260509121805 55 274 1.0 2.0 0.00 0.00 0.00 88 1003.0
20260509121302 54 245 1.0 1.0 0.00 0.00 0.00 88 1003.2
20260509120801 54 235 1.0 1.0 0.00 0.00 0.00 89 1003.2
20260509120258 54 180 1.0 1.0 0.00 0.00 0.00 89 1003.2
20260509115756 53 239 2.0 2.0 0.00 0.00 0.00 90 1003.2
20260509115253 53 220 3.0 3.0 0.00 0.00 0.00 91 1003.2
20260509114751 53 270 1.0 2.0 0.00 0.00 0.00 91 1003.1
20260509114249 53 313 2.0 2.0 0.00 0.00 0.00 90 1003.2
20260509113748 53 245 4.0 7.0 0.00 0.00 0.00 90 1002.9
20260509113245 53 239 1.0 1.0 0.00 0.00 0.00 90 1002.8
20260509112741 53 206 2.0 3.0 0.00 0.00 0.00 90 1002.8
20260509112239 53 252 1.0 1.0 0.00 0.00 0.00 90 1002.9
20260509111736 53 211 2.0 3.0 0.00 0.00 0.00 90 1002.8
20260509111232 53 243 2.0 3.0 0.00 0.00 0.00 90 1002.7
20260509110730 53 219 2.0 2.0 0.00 0.00 0.00 90 1002.6
20260509110226 52 166 1.0 2.0 0.00 0.00 0.00 91 1002.4
20260509105724 52 203 0.0 1.0 0.00 0.00 0.00 91 1002.6
20260509105222 52 175 0.0 1.0 0.00 0.00 0.00 91 1002.5
20260509104719 52 183 0.0 1.0 0.00 0.00 0.00 91 1002.5
20260509104215 53 237 1.0 1.0 0.00 0.00 0.00 91 1002.4
20260509103714 53 153 2.0 2.0 0.00 0.00 0.00 91 1002.5
20260509103210 53 251 1.0 2.0 0.00 0.00 0.00 91 1002.8
20260509102709 53 249 0.0 0.0 0.00 0.00 0.00 91 1002.7
20260509102205 53 270 2.0 2.0 0.00 0.00 0.00 91 1002.8
20260509101702 53 203 1.0 2.0 0.00 0.00 0.00 91 1002.8
20260509101158 53 246 1.0 2.0 0.00 0.00 0.00 91 1002.8
20260509100656 53 170 1.0 1.0 0.00 0.00 0.00 91 1002.5
20260509100152 53 230 3.0 5.0 0.00 0.00 0.00 91 1002.6
20260509095650 53 222 2.0 2.0 0.00 0.00 0.00 91 1002.5
20260509095147 53 220 0.0 1.0 0.00 0.00 0.00 91 1002.4
20260509094643 53 122 1.0 1.0 0.00 0.00 0.00 91 1002.5
20260509094140 53 170 2.0 2.0 0.00 0.00 0.00 91 1002.4
20260509093639 53 194 2.0 3.0 0.00 0.00 0.00 91 1002.5
20260509093135 53 210 2.0 3.0 0.00 0.00 0.00 91 1002.8
20260509092633 53 174 2.0 2.0 0.00 0.00 0.00 91 1002.6
20260509092132 53 319 0.0 1.0 0.00 0.00 0.00 91 1003.0
20260509091630 53 157 1.0 2.0 0.00 0.00 0.00 91 1002.8
20260509091125 53 289 2.0 2.0 0.00 0.00 0.00 91 1002.9
20260509090623 53 208 1.0 2.0 0.00 0.00 0.00 91 1003.0
20260509090120 53 272 3.0 6.0 0.00 0.00 0.00 91 1003.1
20260509085618 53 286 1.0 2.0 0.00 0.00 0.00 91 1003.0
20260509085113 53 189 1.0 2.0 0.00 0.00 0.00 91 1003.1
20260509084611 53 174 0.0 1.0 0.00 0.00 0.00 91 1003.0
20260509084108 53 187 3.0 3.0 0.00 0.00 0.00 91 1003.0
20260509083605 53 202 2.0 3.0 0.00 0.00 0.00 91 1003.1
20260509083102 53 282 2.0 3.0 0.00 0.00 0.00 91 1003.1
20260509082559 53 219 1.0 2.0 0.00 0.00 0.00 90 1003.0
20260509082056 53 132 2.0 3.0 0.00 0.00 0.00 90 1003.0
20260509081553 53 259 2.0 2.0 0.00 0.00 0.00 90 1003.2
20260509081050 53 222 1.0 1.0 0.00 0.00 0.00 90 1003.0
20260509080548 53 219 3.0 5.0 0.00 0.00 0.00 90 1003.1
20260509080046 53 194 1.0 1.0 0.00 0.00 0.00 90 1002.9
20260509075543 53 204 0.0 1.0 0.00 0.00 0.00 90 1003.2
20260509075041 53 217 1.0 1.0 0.00 0.00 0.00 90 1003.1
20260509074537 53 238 3.0 5.0 0.00 0.00 0.00 90 1003.3
20260509074034 53 214 1.0 1.0 0.00 0.00 0.00 90 1003.2
20260509073530 53 216 3.0 5.0 0.00 0.00 0.00 90 1003.1
20260509073027 53 208 1.0 2.0 0.00 0.00 0.00 89 1003.4
20260509072523 53 210 1.0 2.0 0.00 0.00 0.00 89 1003.3
20260509072021 53 208 2.0 5.0 0.00 0.00 0.00 89 1003.6
20260509071517 53 235 5.0 7.0 0.00 0.00 0.00 89 1003.7
20260509071015 54 208 2.0 3.0 0.00 0.00 0.00 89 1003.6
20260509070512 54 203 2.0 2.0 0.00 0.00 0.00 89 1003.7
20260509070008 54 204 1.0 2.0 0.00 0.00 0.00 89 1004.0
20260509065503 54 225 1.0 1.0 0.00 0.00 0.00 89 1003.9
20260509065000 54 136 1.0 2.0 0.00 0.00 0.00 89 1003.9
20260509064458 54 236 3.0 3.0 0.00 0.00 0.00 89 1004.0
20260509063956 54 258 3.0 7.0 0.00 0.00 0.00 89 1004.1
20260509063451 54 205 1.0 1.0 0.00 0.00 0.00 89 1004.2
20260509062948 54 257 1.0 1.0 0.00 0.00 0.00 90 1004.2
20260509062445 54 244 0.0 1.0 0.00 0.00 0.00 90 1004.6
20260509061943 54 178 2.0 2.0 0.00 0.00 0.00 90 1004.6
20260509061440 54 204 1.0 2.0 0.00 0.00 0.00 90 1004.5
20260509060937 54 236 2.0 2.0 0.00 0.00 0.00 90 1004.5
20260509060434 54 219 2.0 2.0 0.00 0.00 0.00 90 1004.5
20260509055929 54 242 2.0 3.0 0.00 0.00 0.00 90 1004.9
20260509055425 54 267 1.0 2.0 0.00 0.00 0.00 89 1004.5
20260509054922 54 227 2.0 2.0 0.00 0.00 0.00 89 1004.5
20260509054419 54 252 0.0 0.0 0.00 0.00 0.00 88 1004.9
20260509053917 54 183 1.0 2.0 0.00 0.00 0.00 88 1004.9
20260509053415 55 225 2.0 2.0 0.00 0.00 0.00 87 1005.1
20260509052912 55 205 4.0 8.0 0.00 0.00 0.00 87 1004.9
20260509052409 55 191 0.0 1.0 0.00 0.00 0.00 86 1004.6
20260509051907 55 230 1.0 2.0 0.00 0.00 0.00 86 1004.6
20260509051405 55 202 3.0 5.0 0.00 0.00 0.00 85 1005.0
20260509050901 55 181 1.0 2.0 0.00 0.00 0.00 84 1004.9
20260509050358 55 171 2.0 5.0 0.00 0.00 0.00 84 1004.8
20260509045855 55 251 2.0 2.0 0.00 0.00 0.00 83 1004.6
20260509045352 55 172 2.0 3.0 0.00 0.00 0.00 82 1004.8
20260509044849 55 211 2.0 2.0 0.00 0.00 0.00 82 1004.5
20260509044347 56 197 0.0 1.0 0.00 0.00 0.00 81 1004.6
20260509043843 56 256 4.0 5.0 0.00 0.00 0.00 80 1004.6
20260509043339 56 124 1.0 2.0 0.00 0.00 0.00 80 1004.5
20260509042835 56 227 2.0 3.0 0.00 0.00 0.00 80 1004.6
20260509042331 56 222 2.0 2.0 0.00 0.00 0.00 79 1004.4
20260509041828 55 208 3.0 3.0 0.00 0.00 0.00 79 1004.6
20260509041325 56 206 0.0 1.0 0.00 0.00 0.00 78 1004.8
20260509040823 55 225 1.0 1.0 0.00 0.00 0.00 78 1004.9
20260509040321 55 217 0.0 1.0 0.00 0.00 0.00 78 1004.8
20260509035818 54 220 1.0 1.0 0.00 0.00 0.00 78 1004.8
20260509035315 54 251 3.0 3.0 0.00 0.00 0.00 78 1004.8
20260509034811 54 197 2.0 3.0 0.00 0.00 0.00 78 1004.8
20260509034309 54 181 2.0 2.0 0.00 0.00 0.00 78 1004.8
20260509033805 54 205 1.0 1.0 0.00 0.00 0.00 78 1004.6
20260509033303 53 150 3.0 3.0 0.00 0.00 0.00 79 1004.9
20260509032759 53 208 1.0 2.0 0.00 0.00 0.00 79 1005.1
20260509032256 53 223 1.0 1.0 0.00 0.00 0.00 79 1005.0
20260509031754 53 187 0.0 0.0 0.00 0.00 0.00 79 1005.2
20260509031251 53 201 1.0 1.0 0.00 0.00 0.00 79 1005.1
20260509030749 53 198 1.0 1.0 0.00 0.00 0.00 80 1004.9
20260509030246 53 188 1.0 1.0 0.00 0.00 0.00 80 1004.9
20260509025743 53 179 2.0 2.0 0.00 0.00 0.00 79 1005.0
20260509025239 53 217 0.0 1.0 0.00 0.00 0.00 79 1005.1
20260509024734 53 201 0.0 1.0 0.00 0.00 0.00 79 1005.3
20260509024230 53 167 1.0 1.0 0.00 0.00 0.00 79 1005.2
20260509023728 53 213 0.0 1.0 0.00 0.00 0.00 78 1005.4
20260509023225 54 192 1.0 1.0 0.00 0.00 0.00 78 1005.5
20260509022721 54 211 1.0 1.0 0.00 0.00 0.00 78 1005.0
20260509022219 54 188 1.0 1.0 0.00 0.00 0.00 77 1005.3
20260509021715 54 204 1.0 1.0 0.00 0.00 0.00 77 1005.4
20260509021213 54 206 1.0 1.0 0.00 0.00 0.00 77 1005.4
20260509020711 54 201 0.0 1.0 0.00 0.00 0.00 76 1005.4
20260509020208 55 180 0.0 0.0 0.00 0.00 0.00 76 1005.3
20260509015706 55 172 1.0 2.0 0.00 0.00 0.00 75 1005.3
20260509015204 55 177 0.0 1.0 0.00 0.00 0.00 75 1005.2
20260509014700 55 200 1.0 2.0 0.00 0.00 0.00 74 1005.6
20260509014156 55 177 0.0 0.0 0.00 0.00 0.00 74 1005.2
20260509013653 56 138 1.0 1.0 0.00 0.00 0.00 73 1005.3
20260509013149 56 196 0.0 1.0 0.00 0.00 0.00 73 1005.5
20260509012640 56 187 1.0 1.0 0.00 0.00 0.00 73 1005.4
20260509012137 56 151 0.0 0.0 0.00 0.00 0.00 73 1005.5
20260509011635 56 173 0.0 1.0 0.00 0.00 0.00 73 1005.3
20260509011132 57 159 0.0 0.0 0.00 0.00 0.00 72 1005.5
20260509010630 57 165 2.0 2.0 0.00 0.00 0.00 72 1005.2
20260509010126 57 172 1.0 2.0 0.00 0.00 0.00 71 1005.4
20260509005624 57 166 0.0 0.0 0.00 0.00 0.00 71 1005.4
20260509005120 58 187 2.0 2.0 0.00 0.00 0.00 70 1005.3
20260509004615 58 149 1.0 1.0 0.00 0.00 0.00 69 1005.2
20260509004113 58 103 3.0 3.0 0.00 0.00 0.00 69 1005.2
20260509003612 59 167 0.0 1.0 0.00 0.00 0.00 69 1005.2
20260509003108 59 147 1.0 2.0 0.00 0.00 0.00 68 1005.2
20260509002606 59 154 1.0 2.0 0.00 0.00 0.00 67 1005.2
20260509002103 59 182 2.0 3.0 0.00 0.00 0.00 67 1005.4
20260509001600 60 138 5.0 6.0 0.00 0.00 0.00 66 1005.3
20260509001055 60 164 3.0 7.0 0.00 0.00 0.00 67 1005.3
20260509000555 60 174 3.0 3.0 0.00 0.00 0.00 66 1005.4
20260509000050 60 142 4.0 5.0 0.00 0.00 0.00 66 1005.1
20260508235548 60 110 2.0 2.0 0.00 0.00 0.00 66 1005.5
20260508235044 61 157 2.0 3.0 0.00 0.00 0.00 66 1005.4
20260508234542 61 103 6.0 9.0 0.00 0.00 0.00 65 1005.5
20260508234039 61 118 4.0 6.0 0.00 0.00 0.00 65 1005.6
20260508233538 62 105 4.0 6.0 0.00 0.00 0.00 64 1005.6
20260508233035 62 234 2.0 2.0 0.00 0.00 0.00 64 1005.7
20260508232532 62 223 2.0 2.0 0.00 0.00 0.00 63 1005.6
20260508232029 62 177 5.0 7.0 0.00 0.00 0.00 63 1005.6
20260508231526 62 115 5.0 6.0 0.00 0.00 0.00 64 1005.8
20260508231023 62 186 3.0 3.0 0.00 0.00 0.00 64 1005.9
20260508230520 62 176 4.0 7.0 0.00 0.00 0.00 64 1005.8
20260508230017 61 135 2.0 2.0 0.00 0.00 0.00 65 1006.1
20260508225514 61 165 0.0 1.0 0.00 0.00 0.00 63 1005.8
20260508225010 61 137 4.0 6.0 0.00 0.00 0.00 62 1005.6
20260508224509 61 126 2.0 2.0 0.00 0.00 0.00 63 1006.0
20260508224005 62 127 3.0 3.0 0.00 0.00 0.00 60 1006.0
20260508223503 62 136 5.0 7.0 0.00 0.00 0.00 57 1005.9
20260508223000 62 174 4.0 5.0 0.00 0.00 0.00 54 1005.6
20260508222458 63 129 5.0 6.0 0.00 0.00 0.00 53 1006.0
20260508221954 63 68 1.0 2.0 0.00 0.00 0.00 53 1005.8
20260508221450 63 102 3.0 5.0 0.00 0.00 0.00 51 1005.8
20260508220946 63 109 2.0 2.0 0.00 0.00 0.00 54 1005.9
20260508220443 63 138 2.0 2.0 0.00 0.00 0.00 49 1006.0
20260508215939 62 123 5.0 6.0 0.00 0.00 0.00 50 1006.0
20260508215436 62 90 4.0 5.0 0.00 0.00 0.00 51 1006.1
20260508214933 62 100 4.0 5.0 0.00 0.00 0.00 51 1006.2
20260508214431 62 93 4.0 7.0 0.00 0.00 0.00 49 1006.1
20260508213926 63 153 4.0 6.0 0.00 0.00 0.00 48 1005.9
20260508213424 63 153 4.0 6.0 0.00 0.00 0.00 47 1006.0
20260508212919 64 107 4.0 6.0 0.00 0.00 0.00 46 1006.0
20260508212416 64 95 6.0 8.0 0.00 0.00 0.00 46 1006.1
20260508211912 64 173 2.0 3.0 0.00 0.00 0.00 46 1006.2
20260508211407 63 122 3.0 3.0 0.00 0.00 0.00 46 1006.2
20260508210906 64 108 6.0 6.0 0.00 0.00 0.00 45 1006.3
20260508210402 64 124 2.0 2.0 0.00 0.00 0.00 46 1006.2
20260508205858 64 132 5.0 6.0 0.00 0.00 0.00 45 1006.4
20260508205355 64 24 3.0 3.0 0.00 0.00 0.00 48 1006.4
20260508204851 64 157 5.0 6.0 0.00 0.00 0.00 43 1006.5
20260508204348 64 135 5.0 6.0 0.00 0.00 0.00 45 1006.6
20260508203844 63 169 3.0 7.0 0.00 0.00 0.00 42 1006.5
20260508203340 63 195 3.0 3.0 0.00 0.00 0.00 44 1006.6
20260508202836 64 96 4.0 5.0 0.00 0.00 0.00 42 1006.8
20260508202334 64 121 3.0 3.0 0.00 0.00 0.00 41 1006.9
20260508201831 63 137 3.0 5.0 0.00 0.00 0.00 44 1006.9
20260508201328 64 159 5.0 6.0 0.00 0.00 0.00 42 1006.9
20260508200824 63 44 2.0 2.0 0.00 0.00 0.00 42 1007.0
20260508200321 63 147 7.0 9.0 0.00 0.00 0.00 44 1006.9
20260508195817 64 121 5.0 6.0 0.00 0.00 0.00 41 1007.1
20260508195314 64 115 3.0 3.0 0.00 0.00 0.00 45 1007.0
20260508194810 64 108 4.0 5.0 0.00 0.00 0.00 43 1006.9
20260508194307 64 126 3.0 3.0 0.00 0.00 0.00 43 1007.3
20260508193804 64 124 5.0 6.0 0.00 0.00 0.00 45 1007.1
20260508193301 64 114 3.0 3.0 0.00 0.00 0.00 48 1007.3
20260508192757 64 133 4.0 5.0 0.00 0.00 0.00 46 1007.5
20260508192254 64 254 3.0 3.0 0.00 0.00 0.00 43 1007.4
20260508191751 64 113 5.0 7.0 0.00 0.00 0.00 43 1007.4
20260508191249 64 70 1.0 2.0 0.00 0.00 0.00 44 1007.5
20260508190746 64 96 1.0 2.0 0.00 0.00 0.00 44 1007.7
20260508190242 63 100 3.0 5.0 0.00 0.00 0.00 48 1007.9
20260508185738 62 82 2.0 5.0 0.00 0.00 0.00 48 1007.9
20260508185236 64 69 4.0 6.0 0.00 0.00 0.00 44 1007.8
20260508184733 64 79 5.0 6.0 0.00 0.00 0.00 45 1007.8